Lid_Strength_Index
4 4 4 5 6 6 7 13 13 7 7 9 12 12 11 8 9 8 10 10 11 12 12 13 13 12 11 11 12 12 13 15 15 12 13 13 15 15 15 16 17 18 17 15
4 4 4 5 5 6 8 13 14 8 7 12 12 11 10 9 9 9 10 11 10 11 12 13 12 10 8 10 12 13 13 15 16 14 13 14 14 15 17 17 17 17 16 14
3 3 3 4 5 6 8 13 15 10 9 11 12 12 11 10 8 9 8 9 10 11 12 12 12 10 8 7 9 4 10 16 15 15 14 13 14 13 15 15 16 16 16 14
2 2 2 3 4 5 9 12 13 11 13 11 11 12 11 11 11 9 9 10 10 11 14 12 11 10 9 8 6 11 13 14 15 14 13 13 12 11 13 14 14 14 12 14
2 2 2 2 3 4 8 11 12 11 12 12 12 13 13 11 10 10 10 11 9 9 12 11 11 10 10 11 9 10 12 14 14 15 13 12 12 11 12 13 13 14 14 14
2 2 2 2 2 4 8 8 9 10 12 12 13 13 11 10 10 9 8 9 10 10 9 8 8 8 9 8 9 11 13 13 14 14 13 12 14 12 11 11 12 12 14 12
2 2 2 2 2 4 5 6 6 10 12 12 11 10 10 10 10 10 9 9 10 9 8 8 9 9 10 10 10 10 12 14 15 15 15 17 12 11 10 10 10 12 12 10
2 2 2 2 2 2 5 5 7 7 12 10 10 10 10 10 10 10 9 8 8 9 10 11 12 11 10 10 10 11 11 13 15 15 16 13 11 9 10 11 10 8 8 9
2 2 2 2 2 2 4 4 5 6 8 12 8 10 10 12 12 11 9 8 8 9 11 11 14 14 13 13 11 12 12 12 12 16 16 16 11 9 7 8 12 7 7 8
2 2 2 2 2 1 2 5 3 5 8 8 9 10 11 11 12 13 12 10 10 9 12 13 13 13 11 13 14 13 12 13 14 15 15 13 10 7 7 13 11 7 7 8
2 2 1 1 1 -0 1 3 3 4 7 7 7 7 10 11 12 13 11 11 10 11 12 12 12 12 11 12 12 12 12 13 14 14 15 15 7 7 10 9 7 7 7 6
2 1 0 -0 -1 -1 0 3 3 1 6 6 5 6 6 7 8 11 11 12 12 10 12 12 11 13 12 13 14 11 13 11 12 11 11 9 7 8 6 6 7 7 6 6
1 0 -0 -1 -1 -1 0 2 3 4 6 6 8 8 6 5 6 6 12 11 10 11 11 13 12 13 11 14 13 13 11 9 11 11 9 8 7 6 5 5 6 5 5 6
0 -0 -1 -1 -1 -1 -0 2 2 4 6 8 9 5 7 5 7 7 7 8 9 10 11 14 13 12 9 12 11 11 10 9 10 10 9 7 7 6 6 5 5 5 5 5
-0 -1 -1 -0 -0 -0 0 1 2 2 6 9 9 7 6 6 6 7 8 9 10 11 12 14 13 11 11 11 10 11 9 10 11 11 8 8 7 6 5 6 5 5 5 5
-1 -1 -0 -0 0 0 2 5 2 1 3 7 10 7 7 7 7 7 8 9 11 11 12 12 12 11 11 13 13 9 8 7 8 9 7 6 6 5 4 5 5 4 5 4
-1 -1 -0 0 0 1 3 5 3 2 2 7 9 11 8 7 7 9 10 9 10 11 12 13 12 12 11 12 13 9 8 6 6 6 6 8 6 6 5 4 4 4 4 4
-1 -0 0 0 1 1 3 2 1 2 4 5 11 11 10 8 9 10 10 11 11 11 11 12 12 12 13 14 11 9 8 8 7 8 6 6 6 5 5 4 4 5 5 5
-1 0 0 1 3 4 4 0 1 2 4 8 10 11 13 8 8 9 10 10 12 11 12 12 11 13 14 13 12 10 8 8 7 6 6 5 6 5 5 5 5 5 5 5
1 2 4 6 4 1 1 3 5 6 6 6 9 9 10 10 10 10 10 11 11 12 11 11 13 13 11 9 10 10 10 9 7 7 7 7 6 6 5 5 5 5 5 4
4 5 6 3 1 3 5 8 8 8 10 9 9 10 9 9 12 11 9 12 12 13 11 11 13 13 10 7 8 7 8 9 9 6 6 5 5 5 5 5 5 4 4 4
4 4 2 3 5 7 9 10 9 9 11 8 8 8 8 9 9 10 9 11 10 13 10 11 13 10 9 8 9 8 8 8 8 7 5 4 4 4 4 4 5 4 4 4
3 5 7 8 8 11 12 13 12 11 8 7 7 8 8 8 9 9 10 13 13 9 12 13 11 10 9 7 6 6 7 10 8 8 5 4 4 4 4 4 4 4 4 3
6 8 12 11 11 11 11 10 9 7 6 7 7 8 8 8 9 9 12 10 10 14 15 13 10 8 7 6 5 6 6 8 9 7 5 4 5 4 4 4 3 4 4 4
8 8 12 11 9 8 8 6 7 6 6 7 8 8 8 9 9 9 10 12 13 12 13 10 8 7 6 6 6 6 6 6 6 5 5 5 4 4 4 4 3 3 4 4
7 8 9 9 8 8 7 8 7 6 6 6 7 9 10 11 10 12 12 13 13 12 9 8 7 6 6 6 5 5 5 5 5 5 5 4 4 4 5 4 4 4 3 4
7 8 9 9 9 9 9 8 7 6 7 10 9 12 12 9 12 13 10 12 10 8 7 6 6 6 6 5 5 5 5 5 6 5 5 5 4 5 5 5 4 4 3 3